Total_Precipitation_Accumulation
0.00 0.00 0.00 0.00 0.00 0.00 0.00 0.00 0.00 0.00 0.02 0.05 0.07 0.08 0.18 0.39 0.25 0.21 0.31 0.29 0.24 0.19 0.10 0.05 0.04 0.02 0.00 0.00 0.00 0.00 0.00 0.00 0.01 0.01 0.00 0.00 0.00 0.00 0.00 0.00 0.00 0.00 0.00
0.00 0.00 0.00 0.00 0.00 0.00 0.00 0.00 0.00 0.00 0.00 0.01 0.02 0.07 0.19 0.28 0.30 0.31 0.26 0.32 0.33 0.43 0.28 0.13 0.08 0.16 0.13 0.06 0.03 0.03 0.06 0.04 0.11 0.08 0.05 0.03 0.01 0.00 0.00 0.00 0.00 0.00 0.00
0.00 0.00 0.00 0.00 0.00 0.00 0.00 0.00 0.00 0.00 0.00 0.00 0.03 0.09 0.17 0.23 0.24 0.17 0.11 0.14 0.31 0.55 0.44 0.25 0.14 0.21 0.19 0.21 0.14 0.12 0.16 0.18 0.19 0.17 0.14 0.08 0.03 0.01 0.00 0.00 0.00 0.00 0.00
0.00 0.00 0.00 0.00 0.00 0.00 0.00 0.00 0.00 0.00 0.00 0.00 0.00 0.01 0.04 0.10 0.15 0.18 0.19 0.26 0.29 0.47 0.53 0.41 0.28 0.31 0.29 0.26 0.30 0.30 0.31 0.34 0.23 0.20 0.14 0.15 0.10 0.10 0.07 0.03 0.05 0.03 0.02
0.00 0.00 0.00 0.00 0.00 0.00 0.00 0.00 0.00 0.00 0.00 0.00 0.00 0.00 0.04 0.11 0.15 0.17 0.19 0.24 0.30 0.35 0.38 0.38 0.38 0.30 0.34 0.38 0.37 0.37 0.31 0.40 0.38 0.31 0.30 0.28 0.22 0.16 0.14 0.11 0.09 0.07 0.04
0.00 0.00 0.00 0.00 0.00 0.00 0.00 0.00 0.00 0.00 0.00 0.00 0.00 0.00 0.03 0.07 0.07 0.11 0.18 0.21 0.22 0.21 0.23 0.30 0.28 0.36 0.29 0.28 0.33 0.38 0.39 0.35 0.43 0.39 0.34 0.34 0.36 0.31 0.27 0.21 0.14 0.14 0.11
0.00 0.00 0.00 0.00 0.00 0.00 0.00 0.00 0.00 0.00 0.00 0.00 0.00 0.00 0.00 0.04 0.07 0.11 0.13 0.14 0.13 0.11 0.16 0.24 0.26 0.28 0.29 0.30 0.29 0.30 0.25 0.28 0.31 0.33 0.32 0.31 0.33 0.36 0.39 0.38 0.33 0.29 0.21
0.00 0.00 0.00 0.00 0.00 0.00 0.00 0.00 0.00 0.00 0.00 0.00 0.00 0.00 0.00 0.02 0.05 0.06 0.07 0.08 0.10 0.14 0.13 0.16 0.21 0.23 0.24 0.26 0.25 0.25 0.23 0.21 0.22 0.28 0.32 0.24 0.19 0.22 0.31 0.39 0.51 0.51 0.47
0.00 0.00 0.00 0.00 0.00 0.00 0.00 0.00 0.00 0.00 0.00 0.00 0.01 0.00 0.01 0.04 0.06 0.06 0.07 0.09 0.10 0.09 0.10 0.13 0.15 0.16 0.17 0.21 0.22 0.21 0.19 0.21 0.22 0.22 0.23 0.23 0.20 0.24 0.27 0.35 0.50 0.74 0.79
0.00 0.00 0.00 0.00 0.00 0.00 0.00 0.00 0.00 0.00 0.01 0.03 0.01 0.01 0.01 0.04 0.05 0.06 0.07 0.07 0.07 0.06 0.09 0.10 0.09 0.08 0.09 0.09 0.11 0.13 0.16 0.19 0.23 0.28 0.34 0.36 0.34 0.31 0.27 0.25 0.28 0.39 0.55
0.00 0.00 0.00 0.00 0.00 0.00 0.00 0.00 0.00 0.00 0.01 0.01 0.01 0.02 0.03 0.05 0.04 0.06 0.05 0.06 0.05 0.05 0.06 0.05 0.05 0.04 0.04 0.04 0.05 0.04 0.06 0.08 0.10 0.16 0.22 0.29 0.27 0.30 0.32 0.40 0.54 0.68 0.80
0.00 0.00 0.00 0.00 0.00 0.00 0.00 0.00 0.00 0.00 0.01 0.00 0.00 0.00 0.02 0.04 0.05 0.06 0.05 0.04 0.04 0.04 0.03 0.02 0.02 0.02 0.01 0.01 0.02 0.03 0.04 0.06 0.07 0.07 0.10 0.14 0.16 0.21 0.25 0.34 0.42 0.50 0.57
0.00 0.00 0.00 0.00 0.00 0.00 0.02 0.04 0.02 0.00 0.00 0.00 0.01 0.01 0.02 0.05 0.07 0.07 0.06 0.04 0.02 0.02 0.01 0.01 0.03 0.05 0.06 0.08 0.08 0.09 0.10 0.11 0.11 0.13 0.16 0.21 0.23 0.29 0.31 0.31 0.32 0.32 0.29
0.01 0.00 0.00 0.00 0.00 0.03 0.05 0.03 0.03 0.02 0.03 0.05 0.06 0.06 0.05 0.05 0.04 0.04 0.05 0.04 0.02 0.01 0.02 0.03 0.03 0.03 0.03 0.05 0.04 0.05 0.07 0.09 0.14 0.21 0.27 0.29 0.31 0.31 0.31 0.32 0.32 0.28 0.20
0.01 0.01 0.00 0.01 0.00 0.01 0.02 0.02 0.04 0.06 0.11 0.11 0.09 0.07 0.03 0.04 0.05 0.05 0.05 0.05 0.04 0.05 0.05 0.06 0.07 0.09 0.11 0.13 0.12 0.12 0.15 0.20 0.28 0.31 0.31 0.33 0.35 0.32 0.27 0.23 0.18 0.13 0.12
0.02 0.00 0.00 0.00 0.01 0.01 0.00 0.00 0.03 0.06 0.07 0.08 0.06 0.03 0.04 0.04 0.04 0.11 0.22 0.13 0.18 0.17 0.21 0.32 0.25 0.23 0.26 0.44 0.36 0.32 0.34 0.36 0.35 0.36 0.33 0.31 0.28 0.19 0.14 0.13 0.11 0.11 0.24
0.01 0.00 0.00 0.00 0.00 0.00 0.00 0.01 0.03 0.02 0.03 0.06 0.06 0.04 0.05 0.08 0.03 0.06 0.14 0.34 0.41 0.35 0.43 0.67 0.83 0.82 0.94 0.94 0.72 0.57 0.38 0.34 0.32 0.29 0.22 0.13 0.09 0.08 0.05 0.03 0.08 0.20 0.33
0.00 0.00 0.00 0.00 0.00 0.00 0.00 0.01 0.12 0.06 0.33 0.14 0.29 0.37 0.34 0.30 0.25 0.27 0.38 0.36 0.36 0.34 0.41 0.56 0.82 0.81 0.72 0.77 0.62 0.51 0.43 0.31 0.16 0.07 0.03 0.01 0.02 0.02 0.04 0.09 0.31 0.24 0.09
0.00 0.00 0.00 0.00 0.00 0.00 0.00 0.01 0.00 0.01 0.06 0.21 0.40 0.28 0.42 0.30 0.33 0.60 0.68 0.92 1.15 1.01 0.73 0.54 0.43 0.31 0.24 0.15 0.09 0.06 0.04 0.02 0.01 0.00 0.00 0.04 0.03 0.02 0.12 0.29 0.27 0.05 0.00
0.00 0.00 0.00 0.00 0.01 0.01 0.03 0.02 0.04 0.05 0.08 0.16 0.29 0.34 0.46 0.70 0.71 0.87 0.74 0.55 0.57 0.62 0.50 0.32 0.19 0.13 0.08 0.04 0.01 0.01 0.01 0.00 0.00 0.01 0.02 0.02 0.03 0.08 0.35 0.18 0.06 0.09 0.04
0.06 0.06 0.06 0.07 0.10 0.18 0.19 0.16 0.29 0.38 0.45 0.58 0.88 0.67 0.67 0.84 0.73 0.59 0.50 0.32 0.18 0.13 0.09 0.05 0.02 0.01 0.00 0.00 0.00 0.00 0.01 0.02 0.07 0.09 0.02 0.01 0.09 0.29 0.14 0.05 0.04 0.06 0.07
0.28 0.31 0.23 0.34 0.46 0.74 0.62 0.51 0.60 0.67 0.67 0.50 0.43 0.43 0.32 0.24 0.18 0.08 0.04 0.01 0.00 0.00 0.00 0.00 0.00 0.00 0.00 0.00 0.00 0.01 0.02 0.07 0.08 0.04 0.02 0.10 0.24 0.06 0.01 0.01 0.03 0.06 0.04
0.13 0.18 0.25 0.41 0.42 0.51 0.38 0.39 0.25 0.25 0.25 0.14 0.10 0.08 0.05 0.01 0.00 0.00 0.00 0.00 0.00 0.00 0.00 0.00 0.00 0.00 0.00 0.00 0.00 0.00 0.06 0.08 0.06 0.06 0.18 0.17 0.02 0.00 0.00 0.01 0.01 0.02 0.01
0.02 0.01 0.01 0.01 0.04 0.03 0.03 0.03 0.02 0.03 0.03 0.01 0.00 0.00 0.00 0.00 0.00 0.00 0.00 0.00 0.00 0.00 0.00 0.00 0.00 0.00 0.00 0.00 0.00 0.02 0.05 0.04 0.10 0.18 0.18 0.01 0.00 0.00 0.00 0.00 0.00 0.00 0.02
0.00 0.00 0.00 0.00 0.00 0.00 0.00 0.00 0.00 0.00 0.00 0.00 0.00 0.00 0.00 0.00 0.00 0.00 0.00 0.00 0.00 0.00 0.00 0.00 0.01 0.01 0.01 0.01 0.04 0.06 0.05 0.09 0.17 0.07 0.00 0.00 0.00 0.00 0.00 0.00 0.00 0.00 0.01
0.00 0.00 0.00 0.00 0.00 0.00 0.00 0.00 0.00 0.00 0.00 0.00 0.00 0.00 0.00 0.00 0.00 0.00 0.00 0.00 0.00 0.00 0.00 0.00 0.01 0.01 0.02 0.03 0.04 0.04 0.12 0.16 0.06 0.00 0.00 0.01 0.01 0.02 0.01 0.02 0.02 0.01 0.03